• Em Portugal
  • Lista de países
  • Para 7 dias
  • Temperatura da água
  • Mapas de satélite
  • Mapa do tempo
  • Widgets de tempo
  • user-avatar
    Iniciar Sessão

    Previsão horária em Dvor-Babcha

    Hoje, 19 Setembro, Quarta-feira

    Tempo Temperatura Precipitação Vento Pressão Humidade
    00:00 +14°C° 0 mm 2 m/s 750 mmHg 92%
    01:00 +14°C° 0 mm 2 m/s 750 mmHg 92%
    02:00 +13°C° 0 mm 2 m/s 750 mmHg 93%
    03:00 +13°C° 0 mm 2 m/s 749 mmHg 94%
    04:00 +13°C° 0 mm 2 m/s 749 mmHg 94%
    05:00 +13°C° 0 mm 2 m/s 749 mmHg 94%
    06:00 +13°C° 0 mm 3 m/s 749 mmHg 90%
    07:00 +14°C° 0 mm 3 m/s 749 mmHg 85%
    08:00 +17°C° 0 mm 3 m/s 749 mmHg 79%
    09:00 +18°C° 0 mm 3 m/s 749 mmHg 74%
    10:00 +20°C° 0 mm 4 m/s 749 mmHg 68%
    11:00 +22°C° 0 mm 4 m/s 749 mmHg 63%
    12:00 +23°C° 0 mm 4 m/s 749 mmHg 60%
    13:00 +25°C° 0 mm 5 m/s 749 mmHg 57%
    14:00 +26°C° 0 mm 5 m/s 749 mmHg 55%
    15:00 +25°C° 0 mm 4 m/s 748 mmHg 59%
    16:00 +23°C° 0 mm 4 m/s 748 mmHg 64%
    17:00 +24°C° 0 mm 3 m/s 748 mmHg 68%
    18:00 +21°C° 0 mm 3 m/s 748 mmHg 75%
    19:00 +19°C° 0 mm 3 m/s 748 mmHg 82%
    20:00 +18°C° 0 mm 3 m/s 748 mmHg 88%
    21:00 +18°C° 0 mm 3 m/s 748 mmHg 90%
    22:00 +17°C° 0 mm 3 m/s 748 mmHg 91%
    23:00 +17°C° 0 mm 3 m/s 748 mmHg 93%

    Amanhã, 20 Setembro, Quinta-feira

    Tempo Temperatura Precipitação Vento Pressão Humidade
    00:00 +16°C° 0 mm 3 m/s 749 mmHg 94%
    01:00 +16°C° 0 mm 2 m/s 749 mmHg 95%
    02:00 +16°C° 0 mm 2 m/s 749 mmHg 95%
    03:00 +15°C° 0 mm 2 m/s 749 mmHg 96%
    04:00 +15°C° 0 mm 2 m/s 749 mmHg 96%
    05:00 +14°C° 0 mm 2 m/s 749 mmHg 96%
    06:00 +15°C° 0 mm 2 m/s 749 mmHg 92%
    07:00 +16°C° 0 mm 2 m/s 749 mmHg 88%
    08:00 +17°C° 0 mm 2 m/s 750 mmHg 85%
    09:00 +19°C° 0 mm 2 m/s 750 mmHg 75%
    10:00 +20°C° 0 mm 2 m/s 750 mmHg 66%
    11:00 +23°C° 0 mm 2 m/s 750 mmHg 57%
    12:00 +24°C° 0 mm 3 m/s 750 mmHg 55%
    13:00 +25°C° 0 mm 3 m/s 750 mmHg 53%
    14:00 +26°C° 0 mm 3 m/s 750 mmHg 50%
    15:00 +25°C° 0 mm 2 m/s 750 mmHg 56%
    16:00 +25°C° 0 mm 2 m/s 750 mmHg 62%
    17:00 +24°C° 0 mm 1 m/s 749 mmHg 67%
    18:00 +22°C° 0 mm 1 m/s 750 mmHg 74%
    19:00 +21°C° 0 mm 1 m/s 750 mmHg 80%
    20:00 +19°C° 0 mm 1 m/s 750 mmHg 86%
    21:00 +18°C° 0 mm 2 m/s 750 mmHg 88%
    22:00 +18°C° 0 mm 2 m/s 750 mmHg 90%
    23:00 +17°C° 0 mm 2 m/s 750 mmHg 92%

    Depois de amanhã, 21 Setembro, Sexta-feira

    Tempo Temperatura Precipitação Vento Pressão Humidade
    00:00 +17°C° 0 mm 2 m/s 750 mmHg 92%
    01:00 +17°C° 0 mm 2 m/s 750 mmHg 93%
    02:00 +17°C° 0 mm 2 m/s 750 mmHg 93%
    03:00 +17°C° 0 mm 2 m/s 750 mmHg 93%
    04:00 +16°C° 0 mm 2 m/s 750 mmHg 93%
    05:00 +16°C° 0 mm 2 m/s 750 mmHg 94%
    06:00 +17°C° 0 mm 2 m/s 750 mmHg 90%
    07:00 +18°C° 0 mm 2 m/s 750 mmHg 86%
    08:00 +19°C° 0 mm 2 m/s 750 mmHg 82%
    09:00 +21°C° 0 mm 3 m/s 750 mmHg 76%
    10:00 +24°C° 0 mm 3 m/s 750 mmHg 69%
    11:00 +25°C° 0 mm 3 m/s 750 mmHg 62%
    12:00 +26°C° 0 mm 4 m/s 750 mmHg 59%
    13:00 +27°C° 0 mm 4 m/s 750 mmHg 56%
    14:00 +27°C° 0 mm 4 m/s 750 mmHg 52%
    15:00 +26°C° 0 mm 4 m/s 749 mmHg 55%
    16:00 +25°C° 0 mm 3 m/s 749 mmHg 59%
    17:00 +24°C° 0 mm 3 m/s 748 mmHg 62%
    18:00 +21°C° 0 mm 3 m/s 748 mmHg 65%
    19:00 +20°C° 0 mm 3 m/s 748 mmHg 68%
    20:00 +18°C° 0 mm 3 m/s 747 mmHg 71%
    21:00 +19°C° 0 mm 4 m/s 747 mmHg 70%
    22:00 +19°C° 0 mm 4 m/s 747 mmHg 68%
    23:00 +19°C° 0 mm 5 m/s 747 mmHg 67%

    22 Setembro, Sábado

    Tempo Temperatura Precipitação Vento Pressão Humidade
    00:00 +19°C° 0 mm 5 m/s 746 mmHg 67%
    01:00 +17°C° 0 mm 5 m/s 746 mmHg 67%
    02:00 +17°C° 0 mm 5 m/s 745 mmHg 67%
    03:00 +17°C° 0 mm 5 m/s 745 mmHg 67%
    04:00 +17°C° 0 mm 6 m/s 744 mmHg 68%
    05:00 +17°C° 0 mm 6 m/s 744 mmHg 68%
    06:00 +17°C° 0 mm 6 m/s 744 mmHg 68%
    07:00 +17°C° 0 mm 6 m/s 744 mmHg 68%
    08:00 +19°C° 0 mm 5 m/s 744 mmHg 69%
    09:00 +17°C° 0.1 mm 5 m/s 745 mmHg 70%
    10:00 +17°C° 0.1 mm 5 m/s 745 mmHg 72%
    11:00 +18°C° 0.1 mm 4 m/s 745 mmHg 74%
    12:00 +15°C° 0.2 mm 4 m/s 746 mmHg 77%
    13:00 +14°C° 0.2 mm 3 m/s 746 mmHg 80%
    14:00 +13°C° 0.2 mm 3 m/s 746 mmHg 83%
    15:00 +13°C° 0.1 mm 3 m/s 746 mmHg 84%
    16:00 +13°C° 0.1 mm 2 m/s 746 mmHg 84%
    17:00 +13°C° 0.1 mm 2 m/s 746 mmHg 85%
    18:00 +13°C° 0.3 mm 2 m/s 746 mmHg 86%
    19:00 +11°C° 0.3 mm 3 m/s 746 mmHg 88%
    20:00 +11°C° 0.3 mm 3 m/s 746 mmHg 89%
    21:00 +10°C° 0.7 mm 3 m/s 746 mmHg 90%
    22:00 +10°C° 0.7 mm 3 m/s 746 mmHg 91%
    23:00 +9°C° 0.7 mm 3 m/s 746 mmHg 92%

    23 Setembro, Domingo

    Tempo Temperatura Precipitação Vento Pressão Humidade
    00:00 +9°C° 0.5 mm 3 m/s 746 mmHg 93%
    01:00 +9°C° 0.5 mm 3 m/s 745 mmHg 93%
    02:00 +9°C° 0.5 mm 3 m/s 745 mmHg 94%
    03:00 +9°C° 0.6 mm 3 m/s 745 mmHg 93%
    04:00 +9°C° 0.6 mm 3 m/s 745 mmHg 93%
    05:00 +9°C° 0.6 mm 3 m/s 745 mmHg 93%
    06:00 +9°C° 0 mm 3 m/s 745 mmHg 92%
    07:00 +8°C° 0 mm 4 m/s 745 mmHg 90%
    08:00 +10°C° 0 mm 4 m/s 744 mmHg 89%
    09:00 +11°C° 0 mm 4 m/s 744 mmHg 83%
    10:00 +12°C° 0 mm 5 m/s 745 mmHg 76%
    11:00 +13°C° 0 mm 5 m/s 745 mmHg 70%
    12:00 +13°C° 0.1 mm 5 m/s 744 mmHg 67%
    13:00 +14°C° 0.1 mm 5 m/s 744 mmHg 64%
    14:00 +14°C° 0.1 mm 5 m/s 744 mmHg 61%
    15:00 +14°C° 0.1 mm 5 m/s 744 mmHg 64%
    16:00 +13°C° 0.1 mm 4 m/s 745 mmHg 68%
    17:00 +12°C° 0.1 mm 3 m/s 745 mmHg 72%
    18:00 +11°C° 0 mm 3 m/s 745 mmHg 77%
    19:00 +10°C° 0 mm 3 m/s 745 mmHg 82%
    20:00 +9°C° 0 mm 3 m/s 746 mmHg 87%
    21:00 +8°C° 0 mm 3 m/s 746 mmHg 88%
    22:00 +8°C° 0 mm 2 m/s 746 mmHg 90%
    23:00 +7°C° 0 mm 2 m/s 746 mmHg 91%

    24 Setembro, Segunda-feira

    Tempo Temperatura Precipitação Vento Pressão Humidade
    00:00 +7°C° 0 mm 2 m/s 746 mmHg 91%
    01:00 +7°C° 0 mm 2 m/s 746 mmHg 92%
    02:00 +6°C° 0 mm 2 m/s 746 mmHg 92%
    03:00 +6°C° 0 mm 2 m/s 746 mmHg 90%
    04:00 +7°C° 0 mm 2 m/s 746 mmHg 88%
    05:00 +7°C° 0 mm 2 m/s 746 mmHg 86%
    06:00 +8°C° 0 mm 3 m/s 746 mmHg 82%
    07:00 +8°C° 0 mm 3 m/s 746 mmHg 78%
    08:00 +9°C° 0 mm 3 m/s 746 mmHg 73%
    09:00 +10°C° 0.1 mm 4 m/s 745 mmHg 71%
    10:00 +10°C° 0.1 mm 5 m/s 745 mmHg 70%
    11:00 +10°C° 0.1 mm 6 m/s 744 mmHg 68%
    12:00 +11°C° 0.1 mm 7 m/s 743 mmHg 66%
    13:00 +11°C° 0.1 mm 7 m/s 743 mmHg 64%
    14:00 +12°C° 0.1 mm 8 m/s 742 mmHg 63%
    15:00 +11°C° 0.4 mm 7 m/s 741 mmHg 68%
    16:00 +11°C° 0.4 mm 7 m/s 741 mmHg 73%
    17:00 +11°C° 0.4 mm 6 m/s 740 mmHg 79%
    18:00 +11°C° 0.1 mm 6 m/s 740 mmHg 78%
    19:00 +12°C° 0.1 mm 5 m/s 740 mmHg 78%
    20:00 +13°C° 0.1 mm 5 m/s 739 mmHg 77%
    21:00 +13°C° 0.5 mm 5 m/s 739 mmHg 80%
    22:00 +13°C° 0.5 mm 5 m/s 739 mmHg 82%
    23:00 +13°C° 0.5 mm 5 m/s 738 mmHg 84%
    Mostrar mais